TWISTERF5 Weather Reports


Display with metric or nautical units.
time (UTC)temp
F
wind
direction
speed
MPH
gust
MPH
rain 1hr
in
rain 24hr
in
rain mn
in
humidity
%
barometer
mb
20260504110515 40 178 5.0 11.0 0.00 0.00 0.00 71 1004.1
20260504100515 37 200 1.0 4.0 0.00 0.00 0.00 72 1004.1
20260504081534 31 200 1.0 3.0 0.00 0.00 0.00 77 1004.8
20260504081015 31 260 1.0 4.0 0.00 0.00 0.00 77 1004.8
20260504080516 31 156 2.0 4.0 0.00 0.00 0.00 78 1004.7
20260504050516 33 124 1.0 3.0 0.00 0.00 0.00 74 1005.3
20260504045515 33 134 0.0 4.0 0.00 0.00 0.00 74 1005.4
20260504045020 33 0 0.0 4.0 0.00 0.00 0.00 74 1005.5
20260504044546 33 118 1.0 3.0 0.00 0.00 0.00 75 1005.5
20260504044017 33 121 0.0 2.0 0.00 0.00 0.00 75 1005.6
20260504043517 33 121 0.0 3.0 0.00 0.00 0.00 75 1005.6
20260504043035 33 0 0.0 3.0 0.00 0.00 0.00 75 1005.7
20260504042516 33 144 0.0 2.0 0.00 0.00 0.00 75 1005.8
20260504042016 33 0 0.0 2.0 0.00 0.00 0.00 74 1005.7
20260504041534 33 178 0.0 2.0 0.00 0.00 0.00 74 1005.7
20260504041016 33 0 0.0 1.0 0.00 0.00 0.00 74 1005.7
20260504040519 33 0 0.0 3.0 0.00 0.00 0.00 74 1005.8
20260504040034 33 0 0.0 3.0 0.00 0.00 0.00 74 1005.8
20260504035517 33 178 0.0 3.0 0.00 0.00 0.00 74 1005.8
20260504035015 33 181 0.0 3.0 0.00 0.00 0.00 74 1005.8
20260504034540 33 0 0.0 2.0 0.00 0.00 0.00 75 1005.9
20260504034017 33 0 0.0 0.0 0.00 0.00 0.00 75 1005.8
20260504033517 33 0 0.0 0.0 0.00 0.00 0.00 76 1005.7
20260504033048 33 0 0.0 0.0 0.00 0.00 0.00 75 1005.7
20260504032514 33 0 0.0 1.0 0.00 0.00 0.00 75 1005.7
20260504032017 33 0 0.0 1.0 0.00 0.00 0.00 75 1005.7
20260504031536 33 0 0.0 1.0 0.00 0.00 0.00 75 1005.7
20260504031016 34 0 0.0 2.0 0.00 0.00 0.00 75 1005.7
20260504030516 34 0 0.0 2.0 0.00 0.00 0.00 75 1005.7
20260504030035 34 229 0.0 2.0 0.00 0.00 0.00 76 1005.7
20260504025514 34 229 0.0 2.0 0.00 0.00 0.00 77 1005.7
20260504025014 34 0 0.0 0.0 0.00 0.00 0.00 76 1005.8
20260504024533 34 0 0.0 1.0 0.00 0.00 0.00 76 1005.8
20260504024018 34 0 0.0 1.0 0.00 0.00 0.00 76 1005.9
20260504023517 34 0 0.0 0.0 0.00 0.00 0.00 76 1005.8
20260504023030 35 0 0.0 0.0 0.00 0.00 0.00 75 1005.8
20260504022517 35 0 0.0 0.0 0.00 0.00 0.00 75 1005.9
20260504022016 35 0 0.0 0.0 0.00 0.00 0.00 75 1005.8
20260504021537 35 0 0.0 0.0 0.00 0.00 0.00 75 1005.8
20260504021016 36 0 0.0 0.0 0.00 0.00 0.00 74 1005.8
20260504020516 36 0 0.0 0.0 0.00 0.00 0.00 74 1005.9
20260504020035 36 0 0.0 0.0 0.00 0.00 0.00 74 1005.9
20260504015515 36 0 0.0 0.0 0.00 0.00 0.00 74 1006.0
20260504015016 36 0 0.0 0.0 0.00 0.00 0.00 73 1006.0
20260504014536 37 0 0.0 0.0 0.00 0.00 0.00 72 1006.0
20260504014016 37 0 0.0 0.0 0.00 0.00 0.00 72 1006.1
20260504013518 37 0 0.0 0.0 0.00 0.00 0.00 72 1006.1
20260504013038 38 0 0.0 0.0 0.00 0.00 0.00 72 1006.1
20260504012515 38 0 0.0 0.0 0.00 0.00 0.00 71 1006.1
20260504012017 38 0 0.0 0.0 0.00 0.00 0.00 72 1006.1
20260504011532 38 0 0.0 0.0 0.00 0.00 0.00 71 1006.0
20260504011016 39 0 0.0 0.0 0.00 0.00 0.00 70 1006.0
20260504010520 39 0 0.0 0.0 0.00 0.00 0.00 70 1006.0
20260504010041 39 0 0.0 0.0 0.00 0.00 0.00 69 1006.0
20260504005517 40 0 0.0 0.0 0.00 0.00 0.00 68 1006.0
20260504005016 40 0 0.0 0.0 0.00 0.00 0.00 67 1006.0
20260504004531 41 0 0.0 0.0 0.00 0.00 0.00 67 1005.9
20260504004015 41 0 0.0 0.0 0.00 0.00 0.00 64 1005.9
20260504003516 42 0 0.0 0.0 0.00 0.00 0.00 63 1005.9
20260504003035 42 0 0.0 0.0 0.00 0.00 0.00 62 1005.8
20260504002515 42 0 0.0 0.0 0.00 0.00 0.00 60 1005.8
20260504002016 43 0 0.0 0.0 0.00 0.00 0.00 59 1005.7
20260504001532 43 0 0.0 0.0 0.00 0.00 0.00 58 1005.7
20260504001016 44 0 0.0 0.0 0.00 0.00 0.00 57 1005.7
20260504000515 44 0 0.0 1.0 0.00 0.00 0.00 57 1005.7
20260504000039 44 0 0.0 1.0 0.00 0.00 0.00 56 1005.7
20260503235516 45 0 0.0 2.0 0.00 0.00 0.00 56 1005.8
20260503235016 45 283 0.0 2.0 0.00 0.00 0.00 55 1005.7
20260503234534 45 323 0.0 1.0 0.00 0.00 0.00 54 1005.6
20260503234020 46 323 0.0 1.0 0.00 0.00 0.00 53 1005.6
20260503233517 46 0 0.0 1.0 0.00 0.00 0.00 52 1005.6
20260503233030 47 0 0.0 2.0 0.00 0.00 0.00 51 1005.7
20260503232519 47 0 0.0 2.0 0.00 0.00 0.00 49 1005.6
20260503232020 48 0 0.0 3.0 0.00 0.00 0.00 49 1005.7
20260503231530 48 0 1.0 3.0 0.00 0.00 0.00 49 1005.7
20260503231017 48 299 0.0 4.0 0.00 0.00 0.00 47 1005.6
20260503230517 48 317 1.0 4.0 0.00 0.00 0.00 47 1005.6
20260503230030 49 0 1.0 4.0 0.00 0.00 0.00 46 1005.7
20260503225516 49 22 0.0 5.0 0.00 0.00 0.00 45 1005.6
20260503225016 49 13 1.0 5.0 0.00 0.00 0.00 45 1005.7
20260503224534 50 9 2.0 8.0 0.00 0.00 0.00 44 1005.6
20260503224023 50 338 3.0 8.0 0.00 0.00 0.00 44 1005.7
20260503223518 50 312 1.0 6.0 0.00 0.00 0.00 45 1005.7
20260503223033 50 349 2.0 7.0 0.00 0.00 0.00 43 1005.7
20260503222516 50 333 1.0 7.0 0.00 0.00 0.00 43 1005.7
20260503222015 51 302 2.0 6.0 0.00 0.00 0.00 44 1005.8
20260503221541 50 0 0.0 5.0 0.00 0.00 0.00 43 1005.8
20260503221016 50 5 2.0 7.0 0.00 0.00 0.00 44 1005.9
20260503220516 50 282 1.0 8.0 0.00 0.00 0.00 43 1005.8
20260503220035 51 258 4.0 8.0 0.00 0.00 0.00 42 1005.9
20260503215517 51 12 2.0 7.0 0.00 0.00 0.00 44 1005.8
20260503215016 51 211 1.0 11.0 0.00 0.00 0.00 42 1005.9
20260503214534 51 284 4.0 11.0 0.00 0.00 0.00 43 1006.0
20260503214020 50 309 3.0 8.0 0.00 0.00 0.00 44 1006.0
20260503213519 50 269 1.0 9.0 0.00 0.00 0.00 44 1006.0
20260503213038 49 315 4.0 9.0 0.00 0.00 0.00 47 1006.0
20260503212516 48 298 3.0 8.0 0.00 0.00 0.00 47 1006.0
20260503212015 48 329 0.0 6.0 0.00 0.00 0.00 49 1006.1
20260503211533 48 0 2.0 8.0 0.00 0.00 0.00 49 1006.1
20260503211016 48 315 2.0 8.0 0.00 0.00 0.00 48 1006.1
20260503210516 48 0 2.0 6.0 0.00 0.00 0.00 48 1006.2
20260503210033 48 324 2.0 6.0 0.00 0.00 0.00 48 1006.1
20260503205517 48 325 2.0 7.0 0.00 0.00 0.00 49 1006.1
20260503205022 48 307 1.0 8.0 0.00 0.00 0.00 48 1006.1
20260503204534 48 281 3.0 11.0 0.00 0.00 0.00 48 1006.0
20260503204015 48 327 4.0 11.0 0.00 0.00 0.00 47 1006.1
20260503203519 48 321 3.0 11.0 0.00 0.00 0.00 47 1006.0
20260503203035 48 243 5.0 12.0 0.00 0.00 0.00 46 1006.1
20260503202523 48 0 4.0 12.0 0.00 0.00 0.00 47 1006.1
20260503202017 48 290 4.0 11.0 0.00 0.00 0.00 47 1006.0
20260503201533 48 290 3.0 9.0 0.00 0.00 0.00 47 1006.0
20260503201016 48 302 3.0 9.0 0.00 0.00 0.00 46 1006.1
20260503200516 48 306 3.0 9.0 0.00 0.00 0.00 48 1006.1
20260503200034 48 309 3.0 14.0 0.00 0.00 0.00 47 1006.1
20260503195517 48 314 6.0 14.0 0.00 0.01 0.00 46 1006.1
20260503195016 49 309 5.0 13.0 0.00 0.01 0.00 45 1006.2
20260503194536 49 274 6.0 13.0 0.00 0.01 0.00 44 1006.1
20260503194016 50 331 4.0 9.0 0.00 0.01 0.00 45 1006.2
20260503193520 50 325 3.0 10.0 0.00 0.01 0.00 45 1006.1
20260503193036 50 333 3.0 10.0 0.00 0.01 0.00 47 1006.2
20260503192515 49 355 3.0 10.0 0.00 0.01 0.00 47 1006.3
20260503192022 48 269 3.0 10.0 0.00 0.01 0.00 48 1006.3
20260503191536 47 355 3.0 11.0 0.00 0.01 0.00 48 1006.4
20260503191017 47 58 5.0 11.0 0.00 0.01 0.00 47 1006.5
20260503190517 48 287 4.0 11.0 0.00 0.01 0.00 48 1006.5
20260503190036 48 327 4.0 11.0 0.00 0.01 0.00 47 1006.6
20260503185516 48 288 4.0 14.0 0.00 0.02 0.00 46 1006.5
20260503185019 48 291 6.0 14.0 0.00 0.02 0.00 45 1006.5
20260503184534 49 325 7.0 14.0 0.00 0.02 0.00 46 1006.5
20260503184016 49 313 7.0 13.0 0.00 0.02 0.00 45 1006.5
20260503183520 49 301 4.0 12.0 0.00 0.02 0.00 46 1006.5
20260503183037 48 337 5.0 12.0 0.00 0.02 0.00 46 1006.6
20260503182515 48 280 6.0 14.0 0.00 0.02 0.00 47 1006.5
20260503182016 48 355 4.0 14.0 0.00 0.02 0.00 47 1006.5
20260503181604 48 355 5.0 14.0 0.00 0.02 0.00 48 1006.6
20260503181019 48 307 5.0 17.0 0.00 0.02 0.00 49 1006.6
20260503180519 48 271 7.0 17.0 0.00 0.02 0.00 47 1006.6
20260503180040 49 334 7.0 17.0 0.00 0.02 0.00 46 1006.6
20260503175516 49 292 5.0 16.0 0.00 0.02 0.00 45 1006.7
20260503175013 50 313 7.0 15.0 0.00 0.02 0.00 42 1006.5
20260503174532 51 288 8.0 15.0 0.00 0.02 0.00 41 1006.5
20260503174016 51 291 6.0 15.0 0.00 0.02 0.00 40 1006.6
20260503173516 52 298 4.0 14.0 0.00 0.02 0.00 38 1006.5
20260503173045 52 307 6.0 14.0 0.00 0.02 0.00 40 1006.6
20260503172515 51 271 3.0 15.0 0.00 0.02 0.00 44 1006.7
20260503172015 51 270 6.0 15.0 0.00 0.02 0.00 41 1006.9
20260503171532 52 258 4.0 13.0 0.00 0.02 0.00 42 1006.8
20260503171016 53 263 5.0 12.0 0.00 0.02 0.00 40 1007.0
20260503170519 53 292 4.0 16.0 0.00 0.02 0.00 41 1007.0
20260503150520 52 49 3.0 11.0 0.00 0.02 0.00 44 1008.2
20260503131015 48 19 3.0 9.0 0.00 0.02 0.00 55 1009.7
20260503130515 47 32 2.0 8.0 0.00 0.02 0.00 55 1009.8